MAST

Satellite information

Favourite Embed

Satellite Type and Status

PAYLOADIN ORBIT

Key statistics

Satellite MAST at a glance.

Uptime

6760

Days in orbit

Revolutions

≈ 14.6

Per day

Orbit

SSO

Sun Synchronous Orbit

Inclination

98.4

Latest

Satellite identification and parameters

Extended collection of information and parameters for MAST.

Object identification

Identified? True

Debris? False

Object name: MAST

International designator: 2007-012K

Object number (NORAD): 31126

Object ID (CCSDS): 31126

Country: UNITED STATES OF AMERICA (US)

Current information (Y/N): Y

RCS size: SMALL

Orbital parameters

Period: 98.498 minutes

Inclination: 98.3963 deg

SMA: 7064.972 km

Apoapsis: 746.219 km

Periapsis: 627.455 km

RAAN: 250.336 deg

Eccentricy: 0.00840513

Argument of periapsis: 79.2398 deg

Mean anomaly: 281.8251 deg

Mean motion: 14.61965454 rev/day

Mean motion (dot): 0.00002163 rev/day2

B* drag term: 0.00042042738 1/REarth

Two-line elements (TLE)

Creation date: Oct. 19, 2025, 2:20 a.m.

Reference frame: TEME

Reference center: EARTH

Epoch: Oct. 18, 2025, 10:52 p.m. UTC

TLE line 0: 0 MAST

TLE line 1: 1 31126U 07012K 25291.95301742 .00002163 00000-0 42043-3 0 9991

TLE line 2: 2 31126 98.3963 250.3360 0084051 79.2398 281.8251 14.61965454983572

Live tracking on map

Real-time ground track for satellite MAST.

In-orbit conjunctions

A list of the most updated potential collisions computed for object MAST.

Target Orbit TCA Probability of collision Miss distance Type
NOAA 16 DEB SSO 2025-07-24 10:09:40 0.0002781376 328.0 (m) DEBRIS
NOAA 16 DEB SSO 2025-07-11 18:59:02 0.0002590594 409.0 (m) DEBRIS
FENGYUN 1C DEB SSO 2025-03-02 20:26:33 0.0001172498 491.0 (m) DEBRIS
COSMOS 2251 DEB LEO 2025-02-12 23:17:36 0.001478726 356.0 (m) DEBRIS
SL-8 DEB LEO 2025-02-05 15:28:25 0.0002429329 450.0 (m) DEBRIS

Associated space launch

Rideshare mission with Egyptian and Saudi Arabian Earth observation satellites as well as 14 American cubesats

MAST was lifted into orbit during the mission ‘Dnepr | EgyptSat 1 & Saudisat 3’, on board a Dnepr space rocket.

The launch took place on April 17, 2007, 6:46 a.m. from 109/95.

For more information about the launch, click the button.

Launch to space Dnepr | EgyptSat 1 & Saudisat 3
Dnepr | EgyptSat 1 & Saudisat 3

Agency: N/A

Status: Launch Successful

Launch date: April 17, 2007, 6:46 a.m. UTC

Rocket: Dnepr

Launch pad: 109/95

Location: Baikonur Cosmodrome, Republic of Kazakhstan

...

Latest news about this satellite

There are no fresh news available about this satellite. Check back as we update our databases every day.


Newsletter sign-up

Weekly statistics, charts and insights to help you stay on top of the space industry.